Vertical_Velocity
1 1 -1 -0 -0 3 4 7 6 1 2 5 3 8 1 3 4 5 4 1 1 1
-2 -0 2 2 3 5 5 8 6 1 6 2 3 4 6 2 4 6 3 8 5 3
-2 -1 -1 -1 -1 1 2 3 7 3 4 6 5 -0 2 2 6 5 4 4 2 1
-2 -4 -4 -3 1 3 5 3 2 2 1 5 1 3 0 -0 0 1 4 3 3 2
-2 -3 -4 2 1 4 5 4 1 4 1 -0 4 6 5 1 1 -1 -3 -3 -3 -3
1 0 -4 2 0 -4 0 3 2 2 5 3 2 1 3 3 1 0 -1 -0 1 -1
-3 -3 -3 1 2 3 -1 6 5 -1 -3 5 3 3 4 1 0 2 3 2 2 1
-9 -10 -9 -8 -4 -5 -6 -3 14 -2 17 -2 2 4 2 2 1 0 2 1 0 1
-8 -8 -9 -7 -8 -5 -4 -1 10 6 -3 15 3 2 -1 0 2 1 1 0 -2 -3
-5 -11 -6 -4 -5 -5 -4 38 -1 3 -4 7 1 1 1 2 -1 -2 0 1 -0 3
-4 -2 -3 -1 -6 -3 -1 -0 17 -1 2 6 32 11 1 17 16 4 -2 -2 -0 0
-5 -3 -6 -6 -7 -3 2 3 2 2 -3 -2 -1 0 2 0 1 1 7 7 5 3
-4 -4 -3 -5 -5 -6 -6 -4 -3 -2 -2 2 2 3 4 8 4 4 4 5 -2 -1
-3 -2 -2 -3 -3 -3 -2 0 1 3 4 3 1 -2 -1 -2 -4 -3 -1 1 -0 -0
Height
5715 5713 5710 5708 5706 5705 5703 5703 5701 5701 5701 5703 5704 5706 5707 5709 5710 5711 5711 5713 5715 5716
5701 5698 5694 5690 5686 5683 5681 5681 5681 5683 5685 5686 5688 5690 5693 5696 5697 5698 5700 5700 5703 5704
5687 5682 5677 5671 5667 5662 5659 5657 5657 5659 5664 5668 5671 5675 5677 5681 5683 5686 5687 5688 5688 5689
5674 5668 5662 5654 5647 5641 5637 5633 5633 5635 5639 5645 5651 5656 5660 5666 5669 5671 5674 5675 5676 5677
5662 5654 5645 5635 5628 5621 5617 5616 5616 5618 5621 5625 5631 5638 5644 5649 5653 5658 5661 5662 5663 5664
5649 5639 5627 5617 5610 5604 5601 5599 5599 5601 5605 5609 5615 5620 5627 5634 5639 5644 5646 5648 5649 5650
5640 5630 5615 5605 5598 5592 5586 5583 5583 5586 5590 5595 5601 5606 5613 5620 5625 5630 5633 5635 5636 5636
5632 5623 5610 5599 5591 5583 5578 5575 5572 5572 5578 5585 5591 5596 5602 5608 5614 5617 5620 5622 5623 5624
5626 5617 5607 5598 5589 5581 5576 5571 5571 5572 5575 5576 5583 5589 5594 5600 5605 5608 5610 5612 5612 5612
5621 5613 5604 5596 5588 5581 5576 5568 5571 5572 5574 5574 5578 5582 5588 5593 5597 5600 5601 5602 5603 5603
5618 5611 5603 5596 5588 5582 5577 5574 5574 5573 5573 5574 5578 5582 5583 5587 5590 5592 5594 5594 5594 5592
5615 5610 5604 5596 5589 5583 5581 5579 5577 5575 5575 5576 5579 5581 5582 5584 5585 5586 5586 5586 5584 5582
5613 5608 5602 5597 5592 5586 5583 5580 5578 5578 5578 5578 5577 5578 5580 5580 5581 5580 5579 5578 5574 5572
5612 5608 5603 5598 5593 5589 5586 5584 5582 5580 5579 5579 5578 5577 5576 5576 5575 5574 5573 5571 5568 5565